User: anonymous   Login
Location: Dover
(39.1580°N, 75.5250°W)
Time: 00:20:29
(UTC-05:00)
Language:

SeaSat 1 - Orbit

View from above orbital plane
View from above orbital plane
View from above satellite
View from above satellite

Ground track
Ground track

The orbit data is extracted from the following two-line orbital elements,

1 10967U 78064A   15057.76712351  .00000348  00000-0  14360-3 0  9990
2 10967 107.9912 342.2449 0002882 274.1824 085.8990 14.43293642925193
Epoch (UTC): 26 February 2015 18:24:39
Eccentricity: 0.0002882
inclination: 107.9912°
perigee height: 745 km
apogee height: 749 km
right ascension of ascending node: 342.2449°
argument of perigee: 274.1824°
revolutions per day: 14.43293642
mean anomaly at epoch: 85.8990°
orbit number at epoch: 92519

The dashed part of the orbit path shows where the satellite is in the earth's shadow,  

DLR